Regional Weather Roundup
Issued by NWS Bismarck, ND

Home | Current Version | Previous Version | Text Only | Print | Product List | Glossary On
Versions: 1 2 3 4 5 6 7 8 9 10 11 12 13 14 15 16 17 18 19 20 21 22 23 24 25 26 27 28 29 30 31 32 33 34 35 36 37 38 39 40 41 42 43 44 45 46 47 48 49 50
000
ASUS43 KBIS 240110
RWRBIS

NWR BROADCAST TEXT
NATIONAL WEATHER SERVICE BISMARCK ND
800 PM CDT WED APR 23 2014

NOTE: "FAIR" INDICATES FEW OR NO CLOUDS BELOW 12,000 FEET WITH NO
SIGNIFICANT WEATHER AND/OR OBSTRUCTIONS TO VISIBILITY.


CITY           SKY/WX    TMP DP  RH WIND       PRES   REMARKS
WILLISTON      CLOUDY    55  40  56 CALM      29.58R
MINOT          CLOUDY    46  43  89 S6        29.61R
MINOT AFB      CLOUDY    44  44  99 SE10      29.60S
BISMARCK       CLOUDY    51  40  65 NW12      29.66R
DICKINSON      MOCLDY    55  26  32 W20       29.62R
GARRISON         N/A     46  42  86 NW13      29.62R
HETTINGER ARPT PTCLDY    52  31  44 W15G22    29.68R
JAMESTOWN      CLOUDY    41  38  89 SE21G33   29.70R
CARRINGTON     CLOUDY    39  39 100 SE24G32   29.69S
CROSBY         CLOUDY    45  45 100 W8        29.57R
HARVEY         CLOUDY    41  41 100 SE20G28   29.66S
HAZEN          FAIR      46  39  76 NW7       29.65S
LINTON         CLOUDY    50  43  76 NW20G25   29.64R
MANDAN         CLOUDY    48  39  71 NW14      29.66R
OAKES          CLOUDY    41  41 100 E14       29.71R
RUGBY          CLOUDY    39  39 100 SE21G29   29.66S
STANLEY        CLOUDY    45  45 100 W10       29.60S
TIOGA          CLOUDY    46  46 100 W6        29.62R
WATFORD CITY   FAIR      52  36  54 NW3       29.58S
$$

CITY           SKY/WX    TMP DP  RH WIND       PRES   REMARKS
GRAND FORKS    RAIN      41  38  89 SE24      29.83F FOG
GRAND FORKS AF LGT RAIN  41  39  93 SE20G32   29.82F FOG
DEVILS LAKE    CLOUDY    37  34  87 SE23G31   29.72F
FARGO          LGT RAIN  41  37  86 SE22      29.79F
CANDO          MOCLDY    39  37  93 SE23G35   29.72F FOG
CAVALIER       CLOUDY    41  39  93 SE14G26   29.85S
GRAFTON        LGT RAIN  41  41 100 SE23G31   29.83F
GWINNER        CLOUDY    41  41 100 SE24G31   29.73R
LANGDON        MIX PCPN  37  36  93 SE32G43   29.79R
ROLLA          MIX PCPN  37  37 100 SE24G33   29.71F
WALHALLA       FAIR      41  41 100 SE21G29   29.84S
$$

CITY           SKY/WX    TMP DP  RH WIND       PRES   REMARKS
ABERDEEN       MOCLDY    48  41  76 E17G23    29.65R
MOBRIDGE       CLOUDY    56  40  55 NW17      29.62R
BUFFALO          N/A     52  29  41 W26       29.64S
RAPID CITY     MOCLDY    54  34  46 N24G31    29.69R
GLASGOW        MOSUNNY   58  20  22 W21G37    29.56R
SIDNEY         PTCLDY    57  25  28 W14G23    29.62R
WOLF POINT     MOCLDY    61  18  18 W24       29.58R
GLENDIVE       PTCLDY    55  21  26 W13G18    29.65S
MILES CITY     CLOUDY    56  19  23 W14       29.68R
BAKER          PTCLDY    53  30  41 W18       29.68S
$$

CITY           SKY/WX    TMP DP  RH WIND       PRES   REMARKS
BILLINGS       MOSUNNY   51  16  24 W26G33    29.76R
GREAT FALLS    MOSUNNY   43  25  49 SW24G36   29.72R
REGINA         LGT RAIN  43  43 100 SW6       29.51S
ESTEVAN        LGT RAIN  45  43  93 W13       29.56R
$$




USA.gov is the U.S. government's official web portal to all federal, state and local government web resources and services.